Location: Beadle
(51.4667°N, 109.0000°W)
Time: 04:59:40
(UTC+00:00)

Envisat - Pass Details

Date: 23 January 2022
Orbit: 764 x 765 km, 98.2° (Epoch: 25 May)

Event Time Altitude Azimuth Distance (km) Brightness Sun altitude
Rises 00:46:01 0° 218° (SW) 3,221 7.3 -8.9°
Reaches altitude 10° 00:49:27 10° 242° (WSW) 2,301 7.1 -9.4°
Maximum altitude 00:52:07 14° 274° (W) 2,025 6.3 -9.8°
Drops below altitude 10° 00:54:48 10° 307° (NW) 2,310 6.0 -10.2°
Sets 00:58:17 0° 332° (NNW) 3,243 6.4 -10.7°
